Tracking 20066 objects as of 7-Dec-2019
HD Live streaming from Space Station
objects crossing your sky now

SL-3 R/B

Track SL-3 R/B now!
10-day predictions
SL-3 R/B is classified as:


NORAD ID: 12904
Int'l Code: 1981-103B
Perigee: 537.3 km
Apogee: 575.5 km
Inclination: 81.2 °
Period: 95.6 minutes
Semi major axis: 6927 km
RCS: 5.653 m2 (large)
Launch date: October 13, 1981
Source: Commonwealth of Independent States (former USSR) (CIS)
Launch site: PLESETSK MISSILE AND SPACE COMPLEX (PKMTR)

Note: This is a ROCKET BODY
aabbcc
Your satellite tracking list
Your tracking list is empty




NASA's NSSDC Master Catalog

Two Line Element Set (TLE):
1 12904U 81103B   19340.86463789 -.00000117 +00000-0 -96455-5 0  9992
2 12904 081.1760 324.2365 0027565 336.0773 023.9167 15.05733512628422
Source of the keplerian elements: AFSPC